CAPE
0 0 0 0 0 0 0 0 0 0 0 0 0 0 0 0 0 0 0 0 0 0 0 0 0 0 0 0 0 0 0 0 0 0 0 0 0 0 0 0 0 0 0 0 0
0 0 0 0 0 0 0 0 0 0 0 0 0 0 0 0 0 0 0 0 0 0 0 0 0 0 0 0 0 0 0 0 0 0 0 0 0 0 0 0 0 0 0 0 0
0 0 0 0 0 0 0 0 0 0 0 0 0 0 0 0 0 0 0 0 0 0 0 0 0 0 0 0 0 0 0 0 0 0 0 0 0 0 0 0 0 0 0 0 0
0 0 0 0 0 0 0 0 0 0 0 0 0 0 0 0 0 0 0 0 0 0 0 0 0 0 0 0 0 0 0 0 0 0 0 0 0 0 0 0 0 0 0 0 0
0 0 0 0 0 0 0 0 0 0 0 0 0 0 0 0 0 0 0 0 0 0 0 0 0 0 0 0 0 0 0 0 0 0 0 0 0 0 0 0 0 0 0 0 0
0 0 0 0 0 0 0 0 0 0 0 0 0 0 0 0 0 0 0 0 0 0 0 0 0 0 0 0 0 0 0 0 0 0 0 0 0 0 0 0 0 0 0 0 0
0 0 0 0 0 0 0 0 0 0 0 0 0 0 0 0 0 0 0 0 0 0 0 0 0 0 0 0 0 0 0 0 0 0 0 0 0 0 0 0 0 0 0 0 0
0 0 0 0 0 0 0 0 0 0 0 0 0 0 0 0 0 0 0 0 0 0 0 0 0 0 0 0 0 0 0 0 0 0 0 0 0 0 0 0 0 0 0 0 0
0 0 0 0 0 0 0 0 0 0 0 0 0 0 0 0 0 0 0 0 0 0 0 0 0 0 0 0 0 0 0 0 0 0 0 0 0 0 0 0 0 0 0 0 0
0 0 0 0 0 0 0 0 0 0 0 0 0 0 0 0 0 0 0 0 0 0 0 0 0 0 0 0 0 0 0 0 0 0 0 0 0 0 0 0 0 0 0 0 0
0 0 0 0 0 0 0 0 0 0 0 0 0 0 0 0 0 0 0 0 0 0 0 0 0 0 0 0 0 0 0 0 0 0 0 0 0 0 0 0 0 0 0 0 0
0 0 0 0 0 0 0 0 0 0 0 0 0 0 0 0 0 0 0 0 0 0 0 0 0 0 0 0 0 0 0 0 0 0 0 0 0 0 0 0 0 0 0 0 0
0 0 0 0 0 0 0 0 0 0 0 0 0 0 0 0 0 0 0 0 0 0 0 0 0 0 0 0 0 0 0 0 0 0 0 0 0 0 0 0 0 0 0 0 0
0 0 0 0 0 0 0 0 0 0 0 0 0 0 0 0 0 0 0 0 0 0 0 0 0 0 0 0 0 0 0 0 0 0 0 0 0 0 0 0 0 0 0 0 0
0 0 0 0 0 0 0 0 0 0 0 0 0 0 0 0 0 0 0 0 0 0 0 0 0 0 0 0 0 0 0 0 0 0 0 0 0 0 0 0 0 0 0 0 0
0 0 0 0 0 0 0 0 0 0 0 0 0 0 0 0 0 0 0 0 0 0 0 0 0 0 0 0 0 0 0 0 0 0 0 0 0 0 0 0 0 0 0 0 0
0 0 0 0 0 0 0 0 0 0 0 0 0 0 0 0 0 0 0 0 0 0 0 0 0 0 0 0 0 0 0 0 0 0 0 0 0 0 0 0 0 0 0 0 0
0 0 0 0 0 0 0 0 0 0 0 0 0 0 0 0 0 0 0 0 0 0 0 0 0 0 0 0 0 0 0 0 0 0 0 0 0 0 0 0 0 0 0 0 0
0 0 0 0 0 0 0 0 0 0 0 0 0 0 0 0 0 0 0 0 0 0 0 0 0 0 0 0 0 0 0 0 0 0 0 0 0 0 0 0 0 0 0 0 0
0 0 0 0 0 0 0 0 0 0 0 0 0 0 0 0 0 0 0 0 0 0 0 0 0 0 0 0 0 0 0 0 0 0 0 0 0 0 0 0 0 0 0 0 0
0 0 0 0 0 0 0 0 0 0 0 0 0 0 0 0 0 0 0 0 0 0 0 0 0 0 0 0 0 0 0 0 0 0 0 0 0 0 0 0 0 0 0 0 0
0 0 0 0 0 0 0 0 0 0 0 0 0 0 0 0 0 0 0 0 0 0 0 0 0 0 0 0 0 0 0 0 0 0 0 0 0 0 0 0 0 0 0 0 0
0 0 0 0 0 0 0 0 0 0 0 0 0 0 0 0 0 0 0 0 0 0 0 0 0 0 0 0 0 0 0 0 1 0 0 0 0 0 0 0 0 0 0 0 0
0 0 0 0 0 0 0 0 0 0 0 0 0 0 0 0 0 0 0 0 0 0 0 0 0 0 0 0 2 0 0 0 3 0 0 0 0 0 0 0 0 0 0 0 0
0 0 0 0 0 0 0 0 0 0 0 0 0 0 0 0 0 0 0 0 0 0 0 0 0 0 0 1 0 0 0 0 0 0 0 0 0 0 0 0 0 0 0 0 0
0 0 0 0 0 0 0 0 0 0 0 0 0 0 0 0 0 0 0 0 0 0 0 0 0 0 0 0 0 0 0 0 0 0 0 0 0 0 0 0 0 0 0 0 0
0 0 0 0 0 0 0 0 0 0 0 0 0 0 0 0 0 0 0 0 0 0 0 0 0 0 0 0 0 0 0 0 0 0 0 0 0 0 0 0 0 0 0 0 0
CIN
0 0 0 0 0 0 0 0 0 0 0 0 0 0 0 0 0 0 0 0 0 0 0 0 0 0 0 0 0 0 0 0 0 0 0 0 0 0 0 0 0 0 0 0 0
0 0 0 0 0 0 0 0 0 0 0 0 0 0 0 0 0 0 0 0 0 0 0 0 0 0 0 0 0 0 0 0 0 0 0 0 0 0 0 0 0 0 0 0 0
0 0 0 0 0 0 0 0 0 0 0 0 0 0 0 0 0 0 0 0 0 0 0 0 0 0 0 0 0 0 0 0 0 0 0 0 0 0 0 0 0 0 0 0 0
0 0 0 0 0 0 0 0 0 0 0 0 0 0 0 0 0 0 0 0 0 0 0 0 0 0 0 0 0 0 0 0 0 0 0 0 0 0 0 0 0 0 0 0 0
0 0 0 0 0 0 0 0 0 0 0 0 0 0 0 0 0 0 0 0 0 0 0 0 0 0 0 0 0 0 0 0 0 0 0 0 0 0 0 0 0 0 0 0 0
0 0 0 0 0 0 0 0 0 0 0 0 0 0 0 0 0 0 0 0 0 0 0 0 0 0 0 0 0 0 0 0 0 0 0 0 0 0 0 0 0 0 0 0 0
0 0 0 0 0 0 0 0 0 0 0 0 0 0 0 0 0 0 0 0 0 0 0 0 0 0 0 0 0 0 0 0 0 0 0 0 0 0 0 0 0 0 0 0 0
0 0 0 0 0 0 0 0 0 0 0 0 0 0 0 0 0 0 0 0 0 0 0 0 0 0 0 0 0 0 0 0 0 0 0 0 0 0 0 0 0 0 0 0 0
0 0 0 0 0 0 0 0 0 0 0 0 0 0 0 0 0 0 0 0 0 0 0 0 0 0 0 0 0 0 0 0 0 0 0 0 0 0 0 0 0 0 0 0 0
0 0 0 0 0 0 0 0 0 0 0 0 0 0 0 0 0 0 0 0 0 0 0 0 0 0 0 0 0 0 0 0 0 0 0 0 0 0 0 0 0 0 0 0 0
0 0 0 0 0 0 0 0 0 0 0 0 0 0 0 0 0 0 0 0 0 0 0 0 0 0 0 0 0 0 0 0 0 0 0 0 0 0 0 0 0 0 0 0 0
0 0 0 0 0 0 0 0 0 0 0 0 0 0 0 0 0 0 0 0 0 0 0 0 0 0 0 0 0 0 0 0 0 0 0 0 0 0 0 0 0 0 0 0 0
0 0 0 0 0 0 0 0 0 0 0 0 0 0 0 0 0 0 0 0 0 0 0 0 0 0 0 0 0 0 0 0 0 0 0 0 0 0 0 0 0 0 0 0 0
0 0 0 0 0 0 0 0 0 0 0 0 0 0 0 0 0 0 0 0 0 0 0 0 0 0 0 0 0 0 0 0 0 0 0 0 0 0 0 0 0 0 0 0 0
0 0 0 0 0 0 0 0 0 0 0 0 0 0 0 0 0 0 0 0 0 0 0 0 0 0 0 0 0 0 0 0 0 0 0 0 0 0 0 0 0 0 0 0 0
0 0 0 0 0 0 0 0 0 0 0 0 0 0 0 0 0 0 0 0 0 0 0 0 0 0 0 0 0 0 0 0 0 0 0 0 0 0 0 0 0 0 0 0 0
0 0 0 0 0 0 0 0 0 0 0 0 0 0 0 0 0 0 0 0 0 0 0 0 0 0 0 0 0 0 0 0 0 0 0 0 0 0 0 0 0 0 0 0 0
0 0 0 0 0 0 0 0 0 0 0 0 0 0 0 0 0 0 0 0 0 0 0 0 0 0 0 0 0 0 0 0 0 0 0 0 0 0 0 0 0 0 0 0 0
0 0 0 0 0 0 0 0 0 0 0 0 0 0 0 0 0 0 0 0 0 0 0 0 0 0 0 0 0 0 0 0 0 0 0 0 0 0 0 0 0 0 -12 0 0
0 0 0 0 0 0 0 0 0 0 0 0 0 0 0 0 0 0 0 0 0 0 0 0 0 0 0 0 0 0 0 0 0 0 0 0 0 0 0 0 0 0 0 0 0
0 0 0 0 0 0 0 0 0 0 0 0 0 0 0 0 0 0 0 0 0 0 0 0 0 0 0 0 0 0 0 0 0 0 0 0 0 0 0 0 0 0 0 0 0
0 0 0 0 0 0 0 0 0 0 0 0 0 0 0 0 0 0 0 0 0 0 0 0 0 0 0 0 0 0 0 0 0 0 0 0 0 0 0 0 0 0 0 0 0
0 0 0 0 0 0 0 0 0 0 0 0 0 0 0 0 0 0 0 0 0 0 0 0 0 0 0 0 0 0 0 0 -2 0 0 -0 0 0 0 0 0 0 0 0 0
0 0 0 0 0 0 0 0 0 0 0 0 0 0 0 0 0 0 0 0 0 0 0 0 0 0 0 0 -7 -3 0 0 -0 -1 0 0 0 0 0 0 0 0 0 0 0
0 0 0 0 0 0 0 0 0 0 0 0 0 0 0 0 0 0 0 0 0 0 0 0 0 0 -1 -1 0 0 0 0 0 0 0 0 0 0 0 0 0 0 0 0 0
0 0 0 0 0 0 0 0 0 0 0 0 0 0 0 0 0 0 0 0 0 0 0 -0 0 0 0 0 0 0 0 0 0 0 0 0 0 0 0 0 0 0 0 0 0
0 0 0 0 0 0 0 0 0 0 0 0 0 0 0 0 0 0 0 0 0 0 0 0 0 0 0 0 0 0 0 0 0 0 0 0 0 0 0 0 0 0 0 0 0
Wind_Speed
24 24 23 21 19 18 20 22 23 22 21 21 22 22 23 22 18 18 19 18 18 21 20 18 18 18 17 16 16 15 16 15 14 15 16 18 19 18 20 19 22 22 22 23 21
24 23 23 22 21 21 22 24 26 25 24 23 24 23 22 19 17 19 19 19 20 22 19 20 19 19 17 17 17 16 16 15 15 16 17 19 19 21 21 24 23 24 22 22 21
18 21 24 25 25 25 25 27 29 28 27 25 23 22 21 16 17 20 21 21 21 21 18 18 17 18 17 17 18 16 16 16 16 17 20 20 21 19 22 23 24 26 25 27 28
15 16 19 23 27 28 30 31 31 30 26 22 20 20 17 15 18 20 21 21 21 20 19 19 19 18 19 19 19 19 17 16 18 20 22 22 21 22 22 23 26 26 26 28 27
18 19 20 21 23 26 30 32 30 28 24 21 19 18 15 17 18 20 21 22 20 20 20 20 20 20 20 20 21 19 20 20 21 25 24 22 21 22 24 29 28 29 29 29 28
21 22 20 22 23 22 29 32 28 24 23 21 19 16 16 18 19 20 21 20 21 20 20 21 19 19 19 20 20 21 23 24 22 25 23 22 21 21 23 29 33 32 32 31 30
24 26 28 29 28 27 28 30 25 22 22 21 19 17 19 18 18 20 21 19 19 19 20 19 20 20 20 22 22 22 25 26 20 24 22 22 24 22 25 35 37 38 36 31 30
29 30 30 31 29 27 26 27 24 21 21 20 19 18 18 18 19 21 22 19 21 19 19 20 19 19 21 21 22 23 23 25 22 27 25 26 30 24 33 38 39 38 34 29 28
31 31 32 31 30 28 23 21 25 20 21 20 18 18 17 19 20 22 21 20 20 21 20 19 20 20 21 24 25 25 29 30 30 27 28 31 36 33 37 39 40 38 31 28 27
31 32 33 33 32 30 29 20 21 25 20 19 20 18 20 19 19 20 20 20 20 20 19 22 23 22 25 28 33 32 33 30 33 29 38 38 37 36 39 38 38 33 28 27 28
32 33 33 34 32 35 30 20 22 20 28 22 19 18 17 19 18 21 21 20 20 22 24 25 27 27 29 27 26 28 31 35 34 34 40 34 43 44 42 32 30 28 29 31 32
33 34 34 34 25 32 31 26 23 17 21 21 20 19 18 19 19 23 23 21 23 24 25 28 24 26 27 27 28 30 35 38 35 34 42 44 47 38 30 30 30 33 32 32 32
34 34 34 33 21 26 30 28 21 16 18 20 19 20 18 20 21 23 24 23 25 26 29 27 24 27 30 31 36 33 36 38 40 41 36 40 43 30 31 33 30 30 30 32 34
34 34 34 30 21 25 25 31 20 15 18 20 19 19 19 18 20 23 25 25 25 27 29 24 24 32 33 33 33 36 36 36 44 48 50 39 54 38 36 32 31 33 34 35 37
33 33 31 29 21 25 25 27 18 16 22 19 18 18 22 21 22 27 27 25 27 28 25 28 33 35 35 30 31 32 38 40 42 44 42 41 45 40 34 39 36 38 37 36 35
33 30 28 24 22 25 29 20 18 20 21 18 18 21 22 26 24 27 27 29 25 25 28 27 29 30 30 28 33 39 43 45 38 40 48 35 44 45 39 40 41 37 35 34 34
31 26 25 23 25 26 23 20 23 21 19 21 21 23 22 26 26 29 27 32 31 35 34 35 28 26 32 35 33 43 48 52 50 49 53 37 49 47 44 37 35 35 35 32 32
27 24 23 24 27 24 21 23 23 20 22 20 22 22 23 28 24 28 28 30 33 30 34 37 40 32 34 34 40 40 37 45 59 60 60 56 51 46 36 32 33 32 32 33 34
24 23 23 29 28 22 23 25 21 20 20 24 23 25 24 24 28 30 29 28 30 34 35 39 37 31 36 35 34 38 42 36 46 49 54 47 45 41 33 37 33 33 35 40 35
23 22 24 33 25 22 21 20 19 18 20 20 24 23 27 29 29 31 29 28 29 32 30 34 46 36 33 32 32 38 36 43 41 54 59 52 55 51 39 42 43 40 39 34 31
23 24 23 33 21 23 22 20 19 19 19 22 22 24 25 29 27 30 29 30 30 33 32 35 35 39 39 41 45 41 39 35 36 39 51 61 52 34 46 42 42 43 38 30 34
22 26 27 25 23 21 21 19 18 20 22 22 21 23 25 28 31 31 31 29 29 33 39 35 38 48 48 38 33 31 33 34 43 49 44 45 52 37 31 36 43 42 36 29 31
23 23 23 22 22 21 19 20 20 22 23 24 24 25 26 29 33 30 31 26 32 36 37 38 40 55 50 36 32 33 33 36 36 36 45 46 43 32 42 43 41 37 33 30 32
22 24 24 23 20 20 20 22 22 22 22 23 24 25 29 30 30 33 33 31 33 36 36 34 39 41 52 47 42 46 42 37 36 41 43 38 39 37 35 37 38 39 34 30 32
22 21 21 25 24 21 22 23 24 25 24 24 26 27 30 35 35 34 32 38 34 34 28 34 45 42 41 40 41 44 43 40 35 32 35 35 32 29 31 31 30 29 32 33 32
22 21 21 21 21 22 24 24 24 25 26 27 29 30 31 34 34 41 39 38 40 35 36 33 44 41 49 42 40 39 38 33 29 27 25 24 25 23 24 24 24 30 32 33 34
19 18 19 21 22 24 25 23 24 25 26 24 27 31 34 33 30 31 31 32 35 40 42 40 38 39 47 38 38 40 29 28 28 24 25 27 23 25 28 28 28 30 32 35 37
Wind_Direction
332 327 321 311 301 296 295 297 297 291 287 288 296 307 321 328 11 9 353 8 13 2 8 16 20 14 16 19 17 18 8 5 2 357 352 350 345 350 344 345 336 336 333 329 335
327 320 316 310 304 299 299 300 301 298 292 290 307 320 331 342 14 2 10 11 6 357 8 2 4 5 11 11 9 6 2 2 4 356 351 346 346 340 339 331 334 329 331 336 340
308 311 313 313 310 305 304 305 305 306 316 329 338 337 336 5 4 349 356 360 360 2 11 13 12 10 5 6 3 5 358 2 355 352 345 340 339 345 339 335 337 332 330 322 321
304 304 306 308 311 311 311 312 313 317 328 342 348 348 355 4 345 352 355 357 359 6 7 6 4 2 358 355 358 351 358 354 350 345 339 336 339 336 335 334 333 331 330 326 324
312 312 312 310 308 307 312 316 323 330 342 346 349 350 4 352 349 352 352 354 4 4 3 2 1 358 354 354 349 349 346 344 341 333 334 334 333 333 332 329 331 331 331 328 327
318 317 313 312 310 306 313 322 336 350 359 358 357 4 357 345 353 352 353 1 0 4 3 2 359 358 354 352 347 344 339 336 338 334 340 339 338 339 341 335 330 335 332 334 331
323 323 323 322 319 314 315 332 360 8 10 8 8 19 8 357 4 356 353 2 5 5 0 2 358 353 350 344 347 343 336 336 345 337 338 338 331 332 335 328 327 325 326 332 334
328 328 326 325 322 316 315 12 25 26 23 24 19 20 10 15 12 357 354 7 0 7 5 359 1 357 352 348 346 343 345 339 343 338 336 333 321 327 327 326 324 325 330 334 335
330 329 330 328 326 321 312 44 30 45 34 26 27 26 21 5 5 359 4 360 359 359 4 7 5 2 357 347 342 343 332 329 327 337 333 330 317 321 323 323 322 324 328 330 333
330 331 333 335 336 327 353 47 33 33 38 43 35 40 20 15 12 6 12 12 14 11 13 5 1 356 350 344 329 329 327 328 324 329 322 319 317 322 323 322 322 327 331 333 334
332 332 333 339 353 345 5 33 22 31 18 40 46 50 44 27 33 19 19 21 16 11 359 358 351 344 342 342 338 333 329 324 326 328 324 325 320 321 321 328 332 335 334 331 330
339 335 334 338 12 3 13 24 29 40 29 42 49 48 53 38 34 9 13 13 7 359 356 350 349 349 346 345 340 335 328 325 328 331 326 322 320 327 335 334 333 329 330 331 331
343 338 336 338 26 14 16 16 27 48 24 27 34 36 37 27 21 3 4 4 357 352 349 346 348 349 344 339 333 334 330 328 325 327 327 326 322 325 332 332 335 336 336 335 333
346 343 342 349 22 13 13 0 23 46 16 11 18 26 22 18 12 5 359 358 354 349 348 351 351 342 340 336 336 330 335 330 325 324 320 327 315 320 325 328 331 334 334 331 328
351 349 358 10 21 11 8 4 36 31 355 11 17 16 8 9 360 352 356 354 351 347 350 345 340 339 338 341 342 334 333 329 324 319 320 321 315 322 324 321 325 327 329 330 330
351 356 5 12 17 8 355 22 22 3 354 8 11 4 3 358 360 353 354 354 354 350 346 346 348 349 346 343 340 336 331 328 328 322 316 323 322 320 322 323 322 325 327 330 330
356 10 17 23 4 6 12 12 356 354 5 358 357 358 2 354 354 354 356 354 350 342 341 341 345 347 346 337 338 336 334 328 324 323 318 325 322 316 320 327 326 325 327 331 331
6 15 16 14 4 11 13 1 348 356 353 1 356 357 355 354 357 353 350 348 352 350 341 339 332 341 342 340 334 335 337 328 320 320 316 317 316 322 328 331 329 327 329 332 330
7 10 11 358 2 14 2 350 351 355 356 350 352 350 353 356 352 350 351 348 351 350 341 335 332 338 338 339 339 334 330 331 320 318 316 319 320 325 330 330 329 328 329 326 328
5 4 4 346 8 12 3 358 1 8 2 360 350 354 345 346 347 347 347 350 347 349 348 339 328 336 339 340 338 334 331 327 326 322 319 319 318 319 329 329 326 327 328 329 330
3 355 5 346 13 5 356 358 2 11 8 359 354 348 348 345 347 343 342 346 347 344 346 339 332 331 333 331 327 330 328 329 327 324 320 319 319 330 324 327 329 328 327 327 328
1 347 357 2 360 8 1 4 8 360 359 356 356 351 347 346 340 339 337 341 348 346 337 338 331 325 325 329 328 328 329 332 326 322 319 317 314 325 331 332 331 331 330 328 330
353 353 4 5 351 1 6 1 1 353 352 349 348 349 347 341 337 339 338 343 345 341 339 338 332 327 329 336 340 334 331 329 327 323 316 315 319 333 328 330 333 336 337 336 333
354 345 356 8 8 0 355 350 350 354 351 350 345 346 341 339 341 336 336 339 340 336 332 331 325 320 319 321 325 322 322 322 319 318 318 314 316 326 330 334 336 338 343 343 339
353 350 354 343 349 355 351 347 344 342 346 347 344 343 341 336 336 334 337 334 337 336 342 338 325 323 320 321 321 319 320 320 316 313 316 318 323 329 335 339 344 350 347 341 342
343 344 349 349 349 348 345 343 341 340 339 338 336 337 338 335 333 329 333 335 333 336 332 333 325 326 319 319 320 321 322 321 325 325 322 322 324 335 343 349 350 346 346 344 340
348 352 347 345 342 340 339 341 342 343 343 344 340 336 334 335 337 333 330 328 324 326 326 325 326 328 324 332 331 327 335 333 336 337 336 334 336 346 347 346 346 344 346 342 336